MUOS-4

Last updated on Tue Oct 28 2025 00:02:49 GMT+0000 (Coordinated Universal Time)

1 40887U 15044A 25300.41659928 -.00000081 00000+0 00000+0 0 9993 2 40887 3.8987 40.3254 0051613 1.0078 219.7234 1.00272345 37220
UTC large
Height (km)
Speed (km/s)
/
Latitude / Longitude
Inclination (degrees)
Orbital Period (minutes)
Azimuth
Elevation
Range (km)
Doppler Factor

Next 0 passes for location: London (51.5072 / 0.1276)

Sorry there are no passes over London.